[[{"header":{"parameterUnit":"m.s-1","parameterCategory":1,"la1":30.2991,"la2":30.254,"lo1":-89.0895,"lo2":-89.0444,"dy":0.0017,"dx":0.0017,"nx":28,"ny":28,"refTime":"2025-12-19T09:00:00:Z","depth":0,"parameterNumber":2,"parameterNumberName":"U-component_of_WINDS"},"data":[0,0,0,0,0,0,0,0,0,0,0,0,0,0,0,0,0,0,0,0,0,0,0,0,0,0,0,0,0,0,0,0,0,0,0,0,0,0,0,0,0,0,0,0,0,0,0,0,0,0,0,0,0,0,0,0,0,0,-0.5922,-0.5923,0,-0.5953,-0.5953,-0.5954,-0.5933,-0.5932,-0.5931,-0.593,-0.5964,-0.5966,-0.5967,0,0,0,0,0,0,0,0,0,0,0,0,0,-0.5848,-0.585,-0.5922,-0.5923,-0.5923,-0.5953,-0.5953,-0.5954,-0.5933,-0.5932,-0.5931,-0.5929,-0.5963,-0.5965,-0.5968,0,0,0,0,0,0,0,0,0,0,0,0,0,-0.588,-0.585,-0.5922,-0.5916,-0.5916,-0.5953,-0.5953,-0.5954,-0.5933,-0.5932,-0.593,-0.5929,-0.5963,-0.5965,-0.5968,-0.6013,0,0,-0.5976,-0.5977,0,0,0,0,0,0,0,0,-0.5878,-0.5883,-0.5917,-0.5917,-0.5916,-0.5937,-0.594,-0.5974,-0.5933,-0.5927,-0.593,-0.5928,-0.5957,-0.596,-0.5969,-0.6015,-0.6016,-0.5976,-0.5978,-0.5979,-0.598,0,0,0,0,0,0,0,-0.5876,-0.5881,-0.5935,-0.5917,-0.5917,-0.5913,-0.5916,-0.5946,-0.5949,-0.5927,-0.5926,-0.5929,-0.5956,-0.5966,-0.5969,-0.6017,-0.5976,-0.5979,-0.598,-0.5981,-0.6103,-0.6105,0,0,0,0,0,0,-0.5874,-0.588,-0.5934,-0.5935,-0.5893,-0.5915,-0.5919,-0.5932,-0.5949,-0.595,-0.5931,-0.5928,-0.5962,-0.5966,-0.597,-0.6026,-0.5979,-0.5982,-0.5983,-0.6102,-0.6104,-0.6105,0,0,0,0,0,0,-0.5873,-0.5879,-0.5932,-0.5907,-0.5914,-0.5918,-0.5934,-0.5934,-0.5943,-0.5952,-0.5952,-0.594,-0.5961,-0.5967,-0.6003,-0.6026,-0.5983,-0.5985,-0.61,-0.6102,-0.6104,-0.6136,0,0,0,0,0,0,-0.587,-0.5879,-0.5895,-0.5908,-0.5915,-0.5964,-0.5935,-0.5935,-0.5948,-0.5945,-0.5961,-0.5962,-0.596,-0.5999,-0.6006,-0.6029,-0.5988,-0.6098,-0.6101,-0.6104,-0.6133,-0.6139,-0.6145,0,0,0,0,0,-0.5868,-0.5903,-0.5896,-0.5903,-0.5936,-0.5965,-0.5969,-0.5966,-0.595,-0.5967,-0.5972,-0.5961,-0.6022,-0.6003,-0.601,-0.6035,-0.6096,-0.61,-0.6103,-0.613,-0.6138,-0.6144,0,0,0,0,0,0,-0.5895,-0.5905,-0.5897,-0.5937,-0.595,-0.5961,-0.5983,-0.5975,-0.5993,-0.599,-0.5986,-0.599,-0.6028,-0.6035,-0.6013,-0.608,-0.6057,-0.6062,-0.6075,-0.6082,-0.6088,-0.6086,-0.599,0,0,0,0,0,-0.5905,-0.5927,-0.5935,-0.597,-0.5977,-0.5979,-0.5992,-0.5988,-0.6002,-0.6007,-0.6015,-0.603,-0.6052,-0.6067,-0.6088,-0.6133,-0.6137,-0.6154,-0.616,-0.6165,-0.617,-0.6195,-0.6203,-0.6117,-0.6117,-0.6117,0,0,-0.5927,-0.5935,-0.595,-0.5976,-0.5985,-0.6009,-0.5984,-0.601,-0.6028,-0.6012,-0.6047,-0.6053,-0.6069,-0.611,-0.6128,-0.6117,-0.6194,-0.6169,-0.6173,-0.6176,-0.62,-0.6208,-0.6215,-0.612,-0.6119,-0.6119,0,0,-0.598,-0.5988,-0.6018,-0.6028,-0.6043,-0.6044,-0.6051,-0.6064,-0.6067,-0.6102,-0.609,-0.6112,-0.615,-0.6163,-0.6174,-0.6231,-0.6222,-0.6238,-0.6269,-0.6294,-0.6301,-0.6307,-0.6328,-0.6336,-0.6243,-0.6243,-0.6243,0,-0.6006,-0.6041,-0.6035,-0.6062,-0.6075,-0.606,-0.6091,-0.6101,-0.6123,-0.6132,-0.6118,-0.6167,-0.6176,-0.622,-0.6234,-0.6243,-0.6253,-0.6237,-0.63,-0.6306,-0.6311,-0.6332,-0.634,-0.6245,-0.6244,-0.6244,-0.6244,0,-0.6073,-0.6097,-0.612,-0.614,-0.6154,-0.6184,-0.6183,-0.6199,-0.6194,-0.6197,-0.6233,-0.6244,-0.6267,-0.6277,-0.6273,-0.6321,-0.6314,-0.63,-0.6277,-0.6322,-0.6341,-0.6349,-0.6247,-0.6247,-0.6246,-0.6246,0,0,-0.6144,-0.616,-0.6169,-0.6178,-0.6193,-0.6213,-0.6241,-0.6263,-0.6277,-0.6292,-0.6317,-0.635,-0.6338,-0.635,-0.6347,-0.6369,-0.6415,-0.6353,-0.6353,-0.6365,-0.647,-0.6482,-0.6491,-0.6408,-0.641,-0.6411,-0.6469,0,-0.6199,-0.6248,-0.6244,-0.6291,-0.6315,-0.6301,-0.6326,-0.6338,-0.6342,-0.6362,-0.6366,-0.639,-0.6371,-0.6379,-0.6399,-0.6405,-0.6436,-0.6401,-0.6433,-0.6434,-0.6431,-0.6501,-0.6513,-0.6567,-0.6477,-0.6478,-0.6479,0,-0.627,-0.6286,-0.6336,-0.6348,-0.6357,-0.638,-0.64,-0.642,-0.6434,-0.6435,-0.6449,-0.6442,-0.6472,-0.6447,-0.6489,-0.6465,-0.6478,-0.6482,-0.6484,-0.6489,-0.6461,-0.6508,-0.6585,-0.6593,-0.6491,-0.649,-0.6489,0,-0.6319,-0.6353,-0.6388,-0.6396,-0.641,-0.6427,-0.6434,-0.6446,-0.646,-0.6478,-0.6487,-0.6508,-0.652,-0.6537,-0.6537,-0.6518,-0.658,-0.6554,-0.6583,-0.6583,-0.6598,-0.6598,-0.6679,-0.6604,-0.6604,-0.6604,-0.6604,0,-0.6381,-0.6412,-0.641,-0.6431,-0.6466,-0.6461,-0.6496,-0.6501,-0.6512,-0.6535,-0.6524,-0.6546,-0.6543,-0.6566,-0.6566,-0.6601,-0.6606,-0.6609,-0.6609,-0.6611,-0.6611,-0.6621,-0.6617,-0.6606,-0.6605,-0.6605,-0.6605,0,-0.6442,-0.6442,-0.6479,-0.6489,-0.6492,-0.6518,-0.6527,-0.6548,-0.6549,-0.6579,-0.6585,-0.6589,-0.6615,-0.6615,-0.6645,-0.6645,-0.6689,-0.6684,-0.6684,-0.6684,-0.6713,-0.6711,-0.6805,-0.6817,-0.6733,-0.6733,-0.6734,0,-0.6483,-0.6506,-0.6519,-0.6533,-0.6541,-0.6564,-0.6577,-0.6573,-0.6588,-0.6606,-0.6625,-0.6649,-0.6669,-0.6711,-0.6717,-0.674,-0.6736,-0.6767,-0.6739,-0.6741,-0.6738,-0.6737,-0.674,-0.6773,-0.6774,-0.6775,-0.6776,0,-0.6555,-0.6554,-0.6574,-0.6594,-0.661,-0.6626,-0.6641,-0.6653,-0.6651,-0.6668,-0.6694,-0.6709,-0.6739,-0.6764,-0.6786,-0.6794,-0.6785,-0.6784,-0.6792,-0.6795,-0.6795,-0.6797,-0.6701,-0.6782,-0.6782,-0.6781,-0.6781,-0.678,-0.6609,-0.6629,-0.6641,-0.6664,-0.6674,-0.6688,-0.6708,-0.6713,-0.6734,-0.6757,-0.6754,-0.6783,-0.6797,-0.6825,-0.6835,-0.6858,-0.6848,-0.6859,-0.6862,-0.6866,-0.687,-0.679,-0.6862,-0.6862,-0.6862,-0.6862,-0.6862,0,-0.6682,-0.6689,-0.671,-0.673,-0.6748,-0.6737,-0.6752,-0.6769,-0.6794,-0.6807,-0.6826,-0.6856,-0.688,-0.6888,-0.6911,-0.6929,-0.6925,-0.6935,-0.6935,-0.6937,-0.6877,-0.6868,-0.6938,-0.6938,-0.6938,-0.6937,-0.6937,-0.6937,-0.6722,-0.6757,-0.6757,-0.6797,-0.6804,-0.6832,-0.6842,-0.6855,-0.6865,-0.6899,-0.6919,-0.6923,-0.6934,-0.6959,-0.6981,-0.6982,-0.6992,-0.7004,-0.7004,-0.6949,-0.6941,-0.6934,-0.6926,-0.7006,-0.7006,-0.7063,-0.7063,-0.7063]},{"header":{"parameterUnit":"m.s-1","parameterCategory":1,"la1":30.2991,"la2":30.254,"lo1":-89.0895,"lo2":-89.0444,"dy":0.0017,"dx":0.0017,"nx":28,"ny":28,"refTime":"2025-12-19T09:00:00:Z","depth":0,"parameterNumber":3,"parameterNumberName":"V-component_of_WINDS"},"data":[0,0,0,0,0,0,0,0,0,0,0,0,0,0,0,0,0,0,0,0,0,0,0,0,0,0,0,0,0,0,0,0,0,0,0,0,0,0,0,0,0,0,0,0,0,0,0,0,0,0,0,0,0,0,0,0,0,0,-2.7201,-2.7203,0,-2.7319,-2.732,-2.7321,-2.7313,-2.7311,-2.7309,-2.7307,-2.7425,-2.7429,-2.7434,0,0,0,0,0,0,0,0,0,0,0,0,0,-2.6969,-2.6973,-2.7201,-2.7203,-2.7204,-2.7318,-2.732,-2.7322,-2.7313,-2.7311,-2.7309,-2.7307,-2.7423,-2.7429,-2.7435,0,0,0,0,0,0,0,0,0,0,0,0,0,-2.7076,-2.6975,-2.7201,-2.7214,-2.7216,-2.7318,-2.732,-2.7322,-2.7313,-2.7311,-2.7308,-2.7306,-2.7421,-2.7428,-2.7435,-2.7531,0,0,-2.7457,-2.746,0,0,0,0,0,0,0,0,-2.707,-2.7085,-2.721,-2.7213,-2.7216,-2.7298,-2.7281,-2.7392,-2.7314,-2.7276,-2.7307,-2.7304,-2.7385,-2.7395,-2.7422,-2.7537,-2.7542,-2.7458,-2.7462,-2.7465,-2.7467,0,0,0,0,0,0,0,-2.7063,-2.708,-2.7248,-2.7212,-2.7216,-2.7213,-2.7226,-2.7302,-2.7344,-2.7279,-2.7279,-2.7293,-2.7386,-2.7415,-2.7425,-2.7544,-2.7458,-2.7464,-2.7468,-2.7471,-2.7746,-2.7748,0,0,0,0,0,0,-2.7053,-2.7074,-2.7244,-2.7251,-2.7135,-2.722,-2.7233,-2.7274,-2.7343,-2.7351,-2.7295,-2.7292,-2.7405,-2.7417,-2.7429,-2.7548,-2.7465,-2.7472,-2.7476,-2.7743,-2.7746,-2.775,0,0,0,0,0,0,-2.7048,-2.7068,-2.7239,-2.7163,-2.7184,-2.7226,-2.7273,-2.7278,-2.7308,-2.7355,-2.7362,-2.7318,-2.7403,-2.7419,-2.7507,-2.7552,-2.7475,-2.7481,-2.7739,-2.7744,-2.7748,-2.7785,0,0,0,0,0,0,-2.7041,-2.7066,-2.7103,-2.7163,-2.7188,-2.7315,-2.7275,-2.7282,-2.7321,-2.7318,-2.7378,-2.7386,-2.7402,-2.7496,-2.7514,-2.756,-2.7487,-2.7735,-2.7741,-2.7746,-2.778,-2.779,-2.7799,0,0,0,0,0,-2.7033,-2.7108,-2.7105,-2.7126,-2.7236,-2.7318,-2.7332,-2.735,-2.7324,-2.7362,-2.7392,-2.7384,-2.7544,-2.7505,-2.7525,-2.7574,-2.7732,-2.7739,-2.7746,-2.7776,-2.7788,-2.7799,0,0,0,0,0,0,-2.7051,-2.7116,-2.7114,-2.7211,-2.7259,-2.7316,-2.7364,-2.7363,-2.7419,-2.7414,-2.7433,-2.7447,-2.7535,-2.7563,-2.7519,-2.7672,-2.7635,-2.7646,-2.765,-2.7663,-2.7672,-2.7664,-2.7493,0,0,0,0,0,-2.7066,-2.7128,-2.7182,-2.7262,-2.7287,-2.7321,-2.7358,-2.7368,-2.7419,-2.7439,-2.7475,-2.7524,-2.7586,-2.7626,-2.7685,-2.7784,-2.7798,-2.7828,-2.7837,-2.7845,-2.7854,-2.7911,-2.7925,-2.7772,-2.7772,-2.7772,0,0,-2.7098,-2.7142,-2.7179,-2.7267,-2.7305,-2.7369,-2.7339,-2.7407,-2.7455,-2.7449,-2.7535,-2.7563,-2.7619,-2.7714,-2.7757,-2.774,-2.79,-2.7853,-2.7859,-2.7865,-2.7919,-2.7934,-2.7947,-2.7777,-2.7776,-2.7775,0,0,-2.7189,-2.7228,-2.73,-2.734,-2.74,-2.7423,-2.744,-2.7499,-2.7518,-2.7605,-2.7603,-2.7659,-2.7764,-2.7805,-2.7839,-2.7949,-2.7944,-2.7967,-2.8017,-2.8072,-2.8084,-2.8095,-2.8136,-2.815,-2.7976,-2.7977,-2.7977,0,-2.7221,-2.7318,-2.7337,-2.7407,-2.7446,-2.7446,-2.7519,-2.7557,-2.7632,-2.7659,-2.7639,-2.7773,-2.781,-2.7915,-2.7942,-2.7969,-2.799,-2.7961,-2.8081,-2.8092,-2.8103,-2.8141,-2.8156,-2.7979,-2.7979,-2.7979,-2.7978,0,-2.7355,-2.7423,-2.7474,-2.7549,-2.7593,-2.7665,-2.7695,-2.7738,-2.7744,-2.777,-2.7859,-2.7904,-2.7973,-2.7999,-2.8005,-2.8106,-2.8093,-2.8077,-2.804,-2.8119,-2.8156,-2.8171,-2.7983,-2.7982,-2.7981,-2.7981,0,0,-2.746,-2.7546,-2.7565,-2.76,-2.7667,-2.7719,-2.7791,-2.786,-2.7897,-2.7949,-2.801,-2.8101,-2.8087,-2.8126,-2.8137,-2.8185,-2.8271,-2.8163,-2.8165,-2.8183,-2.8386,-2.8399,-2.8416,-2.8268,-2.8271,-2.8273,-2.8382,0,-2.7559,-2.7687,-2.7708,-2.782,-2.7883,-2.7885,-2.7947,-2.7995,-2.8021,-2.8079,-2.8107,-2.8171,-2.8147,-2.8171,-2.8219,-2.825,-2.8312,-2.8243,-2.8325,-2.8328,-2.8312,-2.8435,-2.8448,-2.8549,-2.8396,-2.8399,-2.84,0,-2.7691,-2.7749,-2.7869,-2.793,-2.7957,-2.8013,-2.8079,-2.8134,-2.8188,-2.8204,-2.8249,-2.8255,-2.833,-2.829,-2.8394,-2.8346,-2.8381,-2.8402,-2.8406,-2.8415,-2.8369,-2.8448,-2.8581,-2.8596,-2.8423,-2.8421,-2.842,0,-2.7757,-2.7865,-2.7951,-2.7981,-2.8053,-2.8093,-2.8125,-2.8177,-2.8218,-2.8276,-2.8303,-2.8368,-2.8403,-2.8454,-2.8477,-2.8445,-2.858,-2.8541,-2.8596,-2.8595,-2.8624,-2.8622,-2.8766,-2.8645,-2.8645,-2.8645,-2.8644,0,-2.7866,-2.7939,-2.7982,-2.8035,-2.8118,-2.8141,-2.8222,-2.8253,-2.83,-2.8359,-2.8363,-2.8419,-2.8446,-2.8506,-2.8524,-2.8609,-2.8624,-2.8639,-2.8643,-2.864,-2.8638,-2.8663,-2.8657,-2.8649,-2.8648,-2.8647,-2.8646,0,-2.7954,-2.7985,-2.808,-2.8141,-2.8159,-2.8217,-2.827,-2.8322,-2.8348,-2.8423,-2.8442,-2.8483,-2.8554,-2.8582,-2.8668,-2.8681,-2.8778,-2.8776,-2.876,-2.8762,-2.8815,-2.881,-2.898,-2.9005,-2.8867,-2.8868,-2.8869,0,-2.8021,-2.8078,-2.8147,-2.8188,-2.8222,-2.8287,-2.8329,-2.8354,-2.8398,-2.8467,-2.851,-2.8581,-2.8639,-2.8752,-2.8789,-2.8856,-2.8856,-2.8911,-2.8866,-2.8861,-2.8859,-2.8856,-2.8862,-2.892,-2.8921,-2.8922,-2.8923,0,-2.8139,-2.8152,-2.8214,-2.8283,-2.8334,-2.8388,-2.8441,-2.8474,-2.8507,-2.8557,-2.863,-2.8675,-2.8764,-2.8835,-2.8904,-2.8936,-2.8936,-2.8937,-2.8954,-2.8951,-2.894,-2.8948,-2.8784,-2.8933,-2.8932,-2.8932,-2.8931,-2.8931,-2.822,-2.8271,-2.8329,-2.8398,-2.8441,-2.8491,-2.8544,-2.8578,-2.8639,-2.8715,-2.8726,-2.8804,-2.8859,-2.8952,-2.8987,-2.9049,-2.9035,-2.9058,-2.9064,-2.907,-2.9074,-2.8929,-2.9062,-2.9061,-2.9061,-2.9061,-2.9061,0,-2.8339,-2.8376,-2.844,-2.8515,-2.857,-2.8566,-2.8625,-2.8671,-2.8741,-2.8793,-2.8851,-2.8936,-2.9005,-2.9049,-2.9119,-2.916,-2.9162,-2.9177,-2.9175,-2.9183,-2.9082,-2.9062,-2.9175,-2.9175,-2.9175,-2.9175,-2.9175,-2.9175,-2.8407,-2.8495,-2.8516,-2.8625,-2.8662,-2.8741,-2.8775,-2.8821,-2.8863,-2.8959,-2.9017,-2.9045,-2.9094,-2.9168,-2.9232,-2.9243,-2.9269,-2.9286,-2.9296,-2.9202,-2.919,-2.9178,-2.916,-2.9291,-2.9291,-2.9392,-2.9393,-2.9394]}]]